sat.trackr.live / text

‹ back to catalog

GEOEYE 1

NORAD 33331 · 2008-042A

PAYLOAD ACTIVE UNKNOWN

§ Identity

Operator
Country
US
Launch date
2008-09-06
Launch site
AFWTR
Launch vehicle
Mass (kg)
RCS (m²)
4.94

Purposes: earth_obs

External: N2YO · Heavens-Above · Gunter

§ Orbital elements

Epoch: 2026-09-20T04:17:22.488000Z

Period
98.31 min
Inclination
98.1257°
Eccentricity
0.0005773
Mean motion
14.64692738 rev/d
Perigee alt
674.0 km
Apogee alt
682.1 km
Semi-major
7,056.2 km
B*
4.7283e-5
RAAN
335.9624°
Arg perigee
113.4975°
Mean anomaly
246.6835°
Rev number
96,405

§ Raw data

GEOEYE 11 33331U 08042A   26263.17873250  .00000204  00000+0  47283-4 0  99922 33331  98.1257 335.9624 0005773 113.4975 246.6835 14.64692738964059

JSON: /api/v1/satellites/33331 · /tle

For live sub-satellite position, see the globe view (requires WebGL).

§ Visibility from observer

Set your observer location to see the next 7 days of passes ≥ 10°. The values pass through the URL so the page stays shareable.

No JS? Fill the form by hand. The geolocation button needs JavaScript.